Home > Weather > Markham > Past weeks

Flag for Canada Weather for the Past 2 Weeks in Markham, Ontario, Canada

Now
50 °F

Partly sunny.


Feels Like: 47 °F
Forecast: 41 / 61 °F
Wind: 7 mph from South

Location: Toronto Buttonville

Current Time: May 2, 2016 at 9:18:22 PM

Latest Report: May 2, 2016 at 8:00 PM


Visibility: 15 mi

Pressure: 30.01 "Hg

Humidity: 67%

Dew Point: 39 °F

Location of MarkhamLocation

Historic Weather in Markham — Graph

°F

Markham Temperature Yesterday

Maximum temperature yesterday: 50 °F (at 2:46 AM)
Minimum temperature yesterday: 45 °F (at 6:00 AM)
Average temperature yesterday: 46 °F

High & Low Weather Summary for the Past Weeks

 TemperatureHumidityPressure
High75 °F (Apr 18, 2:00 PM)94% (Apr 21, 11:00 PM)30.38 "Hg (Apr 21, 11:00 PM)
Low32 °F (Apr 27, 4:00 AM)13% (Apr 20, 5:00 PM)29.74 "Hg (Apr 26, 5:00 AM)
Average47 °F57%30.09 "Hg
* Reported Apr 17 8:00 PM — May 2 8:00 PM, Markham, Weather by CustomWeather, © 2016

Note: Actual official high and low records may vary slightly from our data, if they occured in-between our weather recording intervals... More about our weather records

Advertising

Markham Weather History for the Previous 24 Hours

Scroll right to see more
 ConditionsComfort  
Time TempWeatherWind HumidityBarometerVisibility
8:00 PM
Mon, May 2
50 °FPartly sunny.7 mph67%30.01 "Hg15 mi
7:00 PM50 °FBroken clouds.9 mph67%29.99 "Hg15 mi
6:00 PM54 °FBroken clouds.9 mph67%29.99 "Hg15 mi
5:00 PM55 °FPartly sunny.7 mph59%29.98 "Hg15 mi
4:00 PM52 °FPartly sunny.9 mph62%29.99 "Hg15 mi
3:00 PM50 °FPartly sunny.8 mph67%30.00 "Hg15 mi
2:00 PM50 °FPartly sunny.7 mph67%30.01 "Hg15 mi
1:00 PM48 °FOvercast.8 mph71%30.02 "Hg15 mi
12:00 PM46 °FOvercast.9 mph76%30.02 "Hg15 mi
11:00 AM45 °FOvercast.8 mph81%30.02 "Hg15 mi
10:00 AM43 °FPartly sunny.10 mph81%29.99 "Hg15 mi
9:00 AM41 °FBroken clouds.15 mph87%29.99 "Hg15 mi
8:00 AM41 °FBroken clouds.9 mph87%30.00 "Hg15 mi
7:00 AM41 °FMostly cloudy.7 mph87%30.02 "Hg15 mi
6:00 AM41 °FPartly cloudy.5 mph87%30.00 "Hg15 mi
5:00 AM43 °FPassing clouds.3 mph87%29.98 "Hg15 mi
4:00 AM43 °FPassing clouds.8 mph81%29.99 "Hg15 mi
3:00 AM45 °FPassing clouds.3 mph81%30.02 "Hg15 mi
2:00 AM45 °FPassing clouds.3 mph81%30.02 "Hg14 mi
1:00 AM45 °FPassing clouds.8 mph87%30.02 "Hg15 mi
12:00 AM45 °FPassing clouds.6 mph87%30.06 "Hg13 mi
11:00 PM
Sun, May 1
45 °FPassing clouds.7 mph87%30.06 "Hg12 mi
10:00 PM45 °FDrizzle. Mostly cloudy.10 mph87%30.07 "Hg9 mi
9:00 PM45 °FDrizzle. Fog.10 mph93%30.06 "Hg3 mi
Weather by CustomWeather, © 2016

See weather overviewHow to use our weather pages